Flag for U.S.A. Weather past 2 weeks in Anaheim, California, U.S.A.

Now
73 °F

Sunny.


Feels Like: 77 °F
Forecast: 53 / 74 °F
Wind: 8 mph from South

Location: Fullerton Municipal Airport

Current Time: Apr 26, 2015 at 4:21:56 PM

Latest Report: Apr 26, 2015 at 3:53 PM


Visibility: 10 mi

Pressure: 29.92 "Hg

Humidity: 41%

Dew point: 48 °F

Location of AnaheimLocation

Historic Weather in Anaheim — Graph

°F

Anaheim temperature yesterday

Maximum temperature yesterday: 66 °F (at 11:53 AM)
Minimum temperature yesterday: 57 °F (at 11:53 PM)
Average temperature yesterday: 62 °F

Past Weeks' High & Low Weather Summary

 TemperatureHumidityPressure
High85 °F (Apr 15, 2:53 PM)84% (Apr 12, 10:53 PM)30.09 "Hg (Apr 12, 10:53 PM)
Low53 °F (Apr 17, 5:53 AM)5% (Apr 16, 11:53 AM)29.82 "Hg (Apr 20, 5:53 PM)
Average65 °F54%29.94 "Hg
* Reported Apr 11 2:53 PM — Apr 26 2:53 PM, Anaheim, Weather by CustomWeather, © 2015

Note: Actual official high and low records may vary slightly from our data, if they occured in-between our weather recording intervals... More about our weather records

Advertising

Anaheim weather history for previous 24 hours

 ConditionsComfort  
Time TempWeatherWind HumidityBarometerVisibility
2:53 PM
Sun, Apr 26
74 °FSunny.9 mph37%29.94 "Hg10 mi
1:53 PM73 °FSunny.10 mph43%29.95 "Hg10 mi
12:53 PM72 °FSunny.9 mph46%29.96 "Hg10 mi
11:53 AM72 °FSunny.5 mph40%29.98 "Hg10 mi
10:53 AM69 °FSunny.3 mph45%29.99 "Hg10 mi
9:53 AM65 °FSunny.5 mph56%29.99 "Hg10 mi
8:53 AM62 °FSunny.6 mph65%29.99 "Hg10 mi
7:53 AM57 °FSunny.6 mph74%29.98 "Hg10 mi
6:53 AM53 °FClear.No wind83%29.96 "Hg10 mi
5:53 AM53 °FClear.3 mph80%29.95 "Hg10 mi
4:53 AM53 °FClear.5 mph83%29.93 "Hg10 mi
3:53 AM55 °FClear.3 mph80%29.92 "Hg10 mi
2:53 AM54 °FClear.3 mph83%29.90 "Hg10 mi
1:53 AM55 °FClear.5 mph80%29.91 "Hg10 mi
12:53 AM56 °FClear.3 mph75%29.91 "Hg10 mi
11:53 PM
Sat, Apr 25
57 °FClear.No wind72%29.91 "Hg10 mi
10:53 PM58 °FClear.No wind72%29.90 "Hg10 mi
9:53 PM59 °FClear.5 mph69%29.90 "Hg10 mi
8:53 PM60 °FClear.5 mph67%29.88 "Hg10 mi
7:53 PM61 °FPassing clouds.12 mph65%29.87 "Hg10 mi
6:53 PM64 °FPartly sunny.10 mph63%29.86 "Hg10 mi
5:53 PM65 °FMostly cloudy.10 mph63%29.85 "Hg10 mi
4:53 PM65 °FMostly cloudy.8 mph68%29.86 "Hg10 mi
Weather by CustomWeather, © 2015

See weather overviewHow to use our weather pages